Weather observations for the past three days for
Aurora State Airport
Imperial (Metric)
Date Time (pdt) Wind (mph) Vis. (mi.) Weather Sky Cond. Temperature (ºF) Relative Humidity Wind Chill (°F) Heat Index (°F) Pressure Precipitation (in)
Air Dwpt 6 hour altimeter (in) sea level (mb) 1 hr 3 hr 6 hr
Max. Min.
09 07:53 N 8 10.00 Fair CLR 54 48.9 83% 30.16 1021.3
09 06:53 N 5 10.00 Fair CLR 51.1 48 89% 30.16 1021.1
09 05:53 N 6 10.00 Fair CLR 46.9 45 93% 45 30.15 1021.0
09 04:53 N 5 10.00 Fair CLR 48.9 46 57.9 48.9 90% 48 30.16 1021.2
09 03:53 N 7 10.00 Fair CLR 48.9 46 90% 46 30.18 1021.7
09 02:53 N 6 10.00 Fair CLR 50 46.9 89% 48 30.18 1021.7
09 01:53 Calm 10.00 Fair CLR 53.1 48 83% 30.18 1021.9
09 00:53 NE 6 10.00 Fair CLR 55.9 48 75% 30.2 1022.5
08 23:53 NE 7 10.00 Fair CLR 57.9 48 70% 30.2 1022.4
08 22:53 N 5 10.00 Fair CLR 57 48 68 57 72% 30.19 1022.3
08 21:53 N 3 10.00 Partly Cloudy SCT055 60.1 48 65% 30.18 1021.8
08 20:53 Calm 10.00 Overcast OVC050 63 48 58% 30.17 1021.4
08 19:53 Calm 10.00 Mostly Cloudy BKN050 64 48.9 58% 30.16 1021.0
08 18:53 Calm 10.00 Partly Cloudy SCT050 66 46 49% 30.16 1021.1
08 17:53 Vrbl 3 10.00 Fair CLR 68 46.9 47% 30.17 1021.4
08 16:53 NW 3 10.00 Fair CLR 66 46 66.9 55 49% 30.17 1021.6
08 15:53 SW 7 10.00 Fair CLR 64.9 45 49% 30.18 1021.7
08 14:53 Vrbl 6 10.00 A Few Clouds FEW043 64 44.1 48% 30.18 1022.0
08 13:53 S 3 9.00 Fair CLR 62.1 44.1 52% 30.19 1022.0
08 12:53 Calm 10.00 Mostly Cloudy BKN037 61 44.1 54% 30.2 1022.4
08 11:53 S 6 10.00 Mostly Cloudy BKN036 BKN100 57.9 43 58% 30.2 1022.5
08 10:53 SW 7 10.00 Mostly Cloudy BKN034 55.9 42.1 57 46.9 60% 30.19 1022.3
08 09:53 W 7 10.00 Mostly Cloudy BKN023 54 44.1 69% 30.18 1021.8
08 08:53 SW 8 10.00 Partly Cloudy SCT018 53.1 44.1 72% 30.17 1021.3
08 07:53 SW 3 10.00 A Few Clouds FEW020 51.1 43 74% 30.16 1021.3
08 06:53 S 6 10.00 A Few Clouds FEW030 48.9 43 80% 47 30.15 1020.7
08 05:53 S 7 10.00 Fair CLR 46.9 43 86% 44 30.11 1019.5
08 04:53 S 5 10.00 Fair CLR 50 43 57.9 48 77% 49 30.1 1019.0
08 03:53 S 5 10.00 Fair CLR 48 44.1 86% 47 30.07 1018.2
08 02:53 SW 3 10.00 Fair CLR 50 44.1 80% 30.06 1017.9
08 01:53 Calm 10.00 Fair CLR 52 45 77% 30.05 1017.4
08 00:53 S 3 10.00 Fair CLR 52 46 80% 30.04 1017.0
07 23:53 S 3 10.00 Fair CLR 55 45 69% 30.03 1016.8
07 22:53 Calm 10.00 Fair CLR 57.9 46.9 72 57.9 67% 30.03 1016.9
07 21:53 SW 5 10.00 Fair CLR 60.1 46.9 62% 30.02 1016.6
07 20:53 Calm 10.00 Fair CLR 62.1 45 54% 30.01 1016.1
07 19:53 S 3 10.00 Fair CLR 66.9 43 42% 30 1015.7
07 18:53 Calm 10.00 Fair CLR 70 43 38% 30.01 1015.9
07 17:53 Calm 10.00 Fair CLR 71.1 41 34% 30.02 1016.3
07 16:53 W 3 10.00 Fair CLR 71.1 41 71.1 57.9 34% 30.03 1016.8
07 15:53 NW 3 10.00 Fair CLR 70 43 38% 30.05 1017.5
07 14:53 Vrbl 3 10.00 Fair CLR 66 43 43% 30.07 1018.2
07 13:53 Vrbl 3 10.00 Fair CLR 64.9 44.1 47% 30.09 1018.9
07 12:53 W 6 10.00 Fair CLR 63 46 54% 30.11 1019.6
07 11:53 NW 5 10.00 Partly Cloudy SCT031 60.1 46 60% 30.13 1020.3
07 10:53 N 6 10.00 Partly Cloudy FEW028 SCT038 59 46 59 52 62% 30.15 1020.7
07 09:53 N 7 10.00 Mostly Cloudy BKN037 55.9 45 67% 30.15 1020.9
07 08:53 NE 5 10.00 Mostly Cloudy BKN037 55 44.1 67% 30.15 1020.9
07 07:53 N 6 10.00 Mostly Cloudy BKN037 53.1 44.1 72% 30.15 1020.9
07 06:53 N 6 10.00 Overcast OVC035 52 44.1 75% 30.14 1020.6
07 05:53 N 5 10.00 Overcast OVC035 52 44.1 75% 30.14 1020.6
07 04:53 N 6 10.00 Overcast OVC036 53.1 44.1 57 53.1 72% 30.15 1020.8
07 03:53 N 6 10.00 Overcast BKN028 OVC038 53.1 44.1 72% 30.16 1021.1
07 02:53 N 7 10.00 Overcast BKN020 OVC027 54 44.1 69% 30.16 1021.3
07 01:53 N 7 10.00 Overcast OVC024 54 46 75% 30.17 1021.7
07 00:53 N 7 10.00 Overcast OVC022 55 48 77% 30.17 1021.7
06 23:53 N 7 10.00 Overcast OVC021 57 48 72% 30.17 1021.4
06 22:53 NE 8 10.00 Overcast OVC026 57 48.9 70 57 74% 30.17 1021.4
06 21:53 NE 6 10.00 Overcast OVC026 59 51.1 75% 30.16 1021.3
06 20:53 Calm 10.00 Overcast OVC039 60.1 48.9 67% 30.15 1020.8
06 19:53 N 7 10.00 Partly Cloudy SCT038 62.1 52 70% 30.12 1019.9
06 18:53 W 6 10.00 Mostly Cloudy BKN045 64.9 52 63% 30.12 1019.9
06 17:53 Vrbl 5 10.00 Mostly Cloudy BKN043 70 54 57% 30.11 1019.6
06 16:53 Calm 10.00 Partly Cloudy SCT040 69.1 54 69.1 57.9 59% 30.11 1019.6
06 15:53 Vrbl 3 10.00 Mostly Cloudy BKN035 68 54 61% 30.13 1020.1
06 14:53 S 7 10.00 Mostly Cloudy BKN030 66.9 54 63% 30.13 1020.3
06 13:53 S 6 10.00 Mostly Cloudy BKN023 64 54 70% 30.15 1020.8
06 12:53 Vrbl 5 10.00 Overcast OVC021 62.1 53.1 73% 30.17 1021.4
06 11:53 S 8 10.00 Overcast OVC017 61 53.1 75% 30.16 1021.1
06 10:53 SW 5 10.00 Overcast OVC015 57.9 52 57.9 54 81% 30.16 1021.3
06 09:53 S 6 10.00 Overcast OVC019 57 51.1 81% 30.16 1021.0
06 08:53 S 8 10.00 Mostly Cloudy FEW013 SCT022 BKN038 57 51.1 81% 30.13 1020.2
Date Time (pdt) Wind (mph) Vis. (mi.) Weather Sky Cond. Air Dwpt Max. Min. Relative Humidity Wind Chill (°F) Heat Index (°F) altimeter (in) sea level (mb) 1 hr 3 hr 6 hr
6 hour
Temperature (ºF) Pressure Precipitation (in)